McCook, NE

7:27 AM CST on December 13, 2019 (GMT -0600)
McCook Municipal

Weather History for KMCK - September, 2019

Change the Weather History Date:

Tuesday, September 3, 2019

  Actual Average Record
Temperature  
Mean Temperature 74 °F 70 °F  
Max Temperature 87 °F 85 °F 104 °F (1947)
Min Temperature 60 °F 55 °F 41 °F (2010)
Cooling Degree Days 8    
Growing Degree Days 24 (Base 50)    
Moisture  
Dew Point 59 °F    
Average Humidity 55    
Maximum Humidity 80    
Minimum Humidity 38    
Precipitation  
Precipitation 0.00 in 0.05 in 4.33 in (2016)
Month to date precipitation 0.00 0.16  
Year to date precipitation 17.33 17.87  
Sea Level Pressure  
Sea Level Pressure 29.95 in    
Wind  
Wind Speed 10 mph ()    
Max Wind Speed 26 mph    
Max Gust Speed 36 mph    
Visibility 10.0 miles    
Events      
T = Trace of Precipitation, MM = Missing Value Source: Averaged Metar Reports

Daily Weather History Graph

Daily Weather History Graph

Search for Another Location

Airport or City:

Astronomy

Sep. 03, 2019 Rise Set
Actual Time 7:11 AM CDT 8:11 PM CDT
Civil Twilight 6:43 AM CDT 8:38 PM CDT
Nautical Twilight 6:10 AM CDT 9:11 PM CDT
Astronomical Twilight 5:36 AM CDT 9:46 PM CDT
Moon 12:07 PM CDT (9/3) 11:08 PM CDT (9/3)
Length of Visible Light 13h 54m
Length of Day
12h 59m
Waxing Crescent, 25% of the Moon is Illuminated
Sep 3
Waxing Crescent
Sep 5
First Quarter
Sep 13
Full
Sep 21
Last Quarter
Sep 28
New

Hourly Weather History & Observations

Time (CDT) Temp. Heat Index Dew Point Humidity Pressure Visibility Wind Dir Wind Speed Gust Speed Precip Events Conditions
12:53 AM 75.9 °F - 55.9 °F 50% 29.82 in 10.0 mi SW 9.2 mph - N/A   Clear
1:53 AM 75.9 °F - 55.0 °F 48% 29.81 in 10.0 mi WSW 10.4 mph - N/A   Clear
2:53 AM 75.9 °F - 55.0 °F 48% 29.81 in 10.0 mi WSW 10.4 mph - N/A   Clear
3:53 AM 75.9 °F - 55.9 °F 50% 29.80 in 10.0 mi WSW 13.8 mph - N/A   Clear
4:53 AM 75.0 °F - 57.0 °F 53% 29.80 in 10.0 mi WSW 12.7 mph - N/A   Clear
5:53 AM 73.9 °F - 57.0 °F 55% 29.81 in 10.0 mi WSW 11.5 mph - N/A   Clear
6:53 AM 70.0 °F - 57.0 °F 63% 29.84 in 10.0 mi WNW 6.9 mph - N/A   Clear
7:53 AM 68.0 °F - 57.9 °F 70% 29.86 in 10.0 mi SW 6.9 mph - N/A   Clear
8:53 AM 73.9 °F - 60.1 °F 62% 29.90 in 10.0 mi NNW 4.6 mph - N/A   Clear
9:53 AM 77.0 °F - 60.1 °F 56% 29.91 in 10.0 mi Calm Calm - N/A   Clear
10:53 AM 80.1 °F 80.7 °F 59.0 °F 48% 29.93 in 10.0 mi NNE 21.9 mph 29.9 mph N/A   Clear
11:53 AM 82.9 °F 85.8 °F 68.0 °F 60% 29.95 in 10.0 mi ENE 26.5 mph 35.7 mph N/A   Partly Cloudy
12:53 PM 84.9 °F 84.4 °F 59.0 °F 41% 29.96 in 10.0 mi NE 26.5 mph 34.5 mph N/A   Clear
1:53 PM 86.0 °F 85.4 °F 59.0 °F 40% 29.99 in 10.0 mi ENE 19.6 mph 31.1 mph N/A   Clear
2:53 PM 86.0 °F 85.0 °F 57.9 °F 38% 29.99 in 10.0 mi ENE 18.4 mph 31.1 mph N/A   Clear
3:53 PM 86.0 °F 85.0 °F 57.9 °F 38% 30.00 in 10.0 mi NE 16.1 mph 26.5 mph N/A   Clear
4:53 PM 86.0 °F 85.4 °F 59.0 °F 40% 30.01 in 10.0 mi NE 17.3 mph 26.5 mph N/A   Clear
5:53 PM 84.0 °F 83.8 °F 59.0 °F 43% 30.02 in 10.0 mi NE 13.8 mph - N/A   Clear
6:53 PM 82.0 °F 82.7 °F 61.0 °F 49% 30.03 in 10.0 mi ENE 12.7 mph - N/A   Clear
7:53 PM 75.9 °F - 62.1 °F 62% 30.06 in 10.0 mi NE 8.1 mph - N/A   Clear
8:53 PM 69.1 °F - 60.1 °F 73% 30.08 in 10.0 mi NE 9.2 mph - N/A   Clear
9:53 PM 66.0 °F - 59.0 °F 78% 30.10 in 10.0 mi NE 5.8 mph - N/A   Clear
10:53 PM 64.0 °F - 57.9 °F 80% 30.11 in 10.0 mi NE 6.9 mph - N/A   Clear
11:53 PM 64.9 °F - 57.0 °F 75% 30.12 in 10.0 mi Calm Calm - N/A   Clear